Atqasuk Edward Burnell Sr Mem, AK

2:10 AM AKST on November 14, 2019 (GMT -0900)
Atqasuk Edward Burnell Sr Mem

Weather History for PATQ - May, 2019

Change the Weather History Date:

Tuesday, May 14, 2019

  Actual Average (WUND) Record (WUND)
Temperature  
Mean Temperature 28 °F -  
Max Temperature 32 °F - - (-1)
Min Temperature 24 °F - - (-1)
Degree Days  
Heating Degree Days 37    
Moisture  
Dew Point 27 °F    
Average Humidity 93    
Maximum Humidity 100    
Minimum Humidity 85    
Precipitation  
Precipitation 0.00 in - - ()
Sea Level Pressure  
Sea Level Pressure 30.03 in    
Wind  
Wind Speed 14 mph (East)    
Max Wind Speed 17 mph    
Max Gust Speed -    
Visibility 5 miles    
Events Fog , Snow    
Averages and records for this station are not official NWS values.
T = Trace of Precipitation, MM = Missing Value Source: NWS Daily Summary

Daily Weather History Graph

Daily Weather History Graph

Search for Another Location

Airport or City:

Astronomy

May. 14, 2019 Rise Set
Actual Time 2:48 AM AKDT 1:53 AM AKDT
Civil Twilight Sun does not rise Sun does not rise
Nautical Twilight Sun does not rise Sun does not rise
Astronomical Twilight Sun does not rise Sun does not rise
Moon 4:47 PM AKDT 5:58 AM AKDT
Length of Visible Light 24h 00m
Length of Day
23h 05m
Waxing Gibbous, 80% of the Moon is Illuminated
May 14
Waxing Gibbous
May 18
Full
May 26
Last Quarter
Jun 3
New
Jun 9
First Quarter

Hourly Weather History & Observations

Time (AKDT) Temp. Windchill Dew Point Humidity Pressure Visibility Wind Dir Wind Speed Gust Speed Precip Events Conditions
12:56 AM 27.0 °F 18.0 °F 26.1 °F 96% 30.07 in 10.0 mi ENE 9.2 mph - N/A   Clear
1:56 AM 26.1 °F 14.5 °F 25.0 °F 96% 30.06 in 10.0 mi ENE 13.8 mph - N/A   Clear
2:56 AM 25.0 °F 13.6 °F 25.0 °F 100% 30.06 in 10.0 mi East 12.7 mph - N/A   Clear
3:56 AM 25.0 °F 13.6 °F 24.1 °F 96% 30.06 in 10.0 mi East 12.7 mph - N/A   Clear
4:56 AM 24.1 °F 12.5 °F 23.0 °F 96% 30.06 in 10.0 mi ENE 12.7 mph - N/A   Clear
5:56 AM 25.0 °F 14.8 °F 23.0 °F 92% 30.07 in 10.0 mi ENE 10.4 mph - N/A   Clear
6:56 AM 25.0 °F 14.8 °F 24.1 °F 96% 30.07 in 10.0 mi ENE 10.4 mph - N/A   Clear
8:56 AM 27.0 °F 14.7 °F 25.0 °F 92% 30.05 in 10.0 mi ENE 16.1 mph - N/A   Clear
9:43 AM 26.6 °F 13.8 °F 24.8 °F 93% 30.02 in 10.0 mi East 17.3 mph - N/A   Scattered Clouds
9:56 AM 27.0 °F 14.7 °F 25.0 °F 92% 30.05 in 10.0 mi East 16.1 mph - N/A   Mostly Cloudy
10:41 AM 28.4 °F 16.2 °F 26.6 °F 93% 30.02 in 10.0 mi East 17.3 mph - N/A   Overcast
10:56 AM 28.9 °F 16.9 °F 27.0 °F 92% 30.04 in 10.0 mi East 17.3 mph - N/A   Overcast
11:56 AM 28.9 °F 16.9 °F 27.0 °F 92% 30.05 in 9.0 mi East 17.3 mph - N/A   Overcast
12:05 PM 28.4 °F 16.2 °F 26.6 °F 93% 30.03 in 1.8 mi East 17.3 mph - N/A   Overcast
12:13 PM 28.4 °F 16.2 °F 26.6 °F 93% 30.03 in 0.8 mi East 17.3 mph - N/A   Overcast
12:21 PM 28.4 °F 16.2 °F 26.6 °F 93% 30.03 in 1.2 mi East 17.3 mph - N/A   Overcast
12:27 PM 28.4 °F 16.2 °F 26.6 °F 93% 30.03 in 3.0 mi East 17.3 mph - N/A   Overcast
12:56 PM 30.0 °F 18.7 °F 28.0 °F 92% 30.05 in 3.0 mi East 16.1 mph - N/A   Overcast
1:01 PM 30.2 °F 18.5 °F 26.6 °F 86% 30.02 in 1.8 mi East 17.3 mph - N/A   Overcast
1:19 PM 30.2 °F 18.5 °F 28.4 °F 93% 30.03 in 4.0 mi East 17.3 mph - N/A   Overcast
1:56 PM 30.0 °F 19.5 °F 27.0 °F 88% 30.06 in 10.0 mi East 13.8 mph - N/A   Overcast
2:56 PM 30.0 °F 18.7 °F 28.0 °F 92% 30.05 in 10.0 mi East 16.1 mph - N/A   Overcast
3:56 PM 30.9 °F 19.4 °F 28.0 °F 89% 30.04 in 10.0 mi East 17.3 mph - N/A   Overcast
4:46 PM 32.0 °F 21.6 °F 28.4 °F 87% 30.03 in 10.0 mi East 15.0 mph - N/A   Overcast
4:56 PM 32.0 °F 22.5 °F 28.0 °F 85% 30.05 in 10.0 mi East 12.7 mph - N/A   Overcast
5:56 PM 30.9 °F 19.8 °F 28.9 °F 92% 30.04 in 10.0 mi East 16.1 mph - N/A   Overcast
6:56 PM 32.0 °F 21.6 °F 28.9 °F 88% 30.04 in 10.0 mi East 15.0 mph - N/A   Overcast
7:56 PM 30.9 °F 20.2 °F 28.9 °F 92% 30.04 in 10.0 mi East 15.0 mph - N/A   Overcast
8:20 PM 30.2 °F 19.8 °F 28.4 °F 93% 30.02 in 1.5 mi East 13.8 mph - N/A   Overcast
8:22 PM 30.2 °F 19.8 °F 28.4 °F 93% 30.02 in 0.8 mi East 13.8 mph - 0.00 in Snow Light Snow
8:32 PM 30.2 °F 20.2 °F 28.4 °F 93% 30.02 in 1.2 mi East 12.7 mph - 0.00 in Snow Light Snow
8:34 PM 30.2 °F 20.2 °F 28.4 °F 93% 30.02 in 0.8 mi East 12.7 mph - 0.00 in Snow Light Snow
8:41 PM 30.2 °F 19.8 °F 28.4 °F 93% 30.02 in 0.2 mi East 13.8 mph - 0.00 in Fog , Snow Light Snow
8:56 PM 30.0 °F 19.1 °F 28.0 °F 92% 30.04 in 0.2 mi East 15.0 mph - 0.00 in Fog Light Freezing Fog
9:03 PM 30.2 °F 20.8 °F 28.4 °F 93% 30.02 in 0.5 mi East 11.5 mph - 0.00 in Fog Light Freezing Fog
9:10 PM 30.2 °F 20.2 °F 28.4 °F 93% 30.02 in 0.2 mi East 12.7 mph - 0.00 in Fog Light Freezing Fog
9:52 PM 28.4 °F 18.0 °F 28.4 °F 100% 30.02 in 0.8 mi East 12.7 mph - 0.00 in   Overcast
9:56 PM 28.9 °F 18.6 °F 28.0 °F 96% 30.05 in 0.5 mi East 12.7 mph - 0.00 in Fog , Snow Light Snow
10:03 PM 28.4 °F 17.5 °F 28.4 °F 100% 30.02 in 0.2 mi East 13.8 mph - 0.00 in Fog , Snow Light Snow
10:40 PM 28.4 °F 17.5 °F 28.4 °F 100% 30.02 in 0.8 mi East 13.8 mph - 0.00 in   Overcast
10:43 PM 28.4 °F 18.0 °F 28.4 °F 100% 30.02 in 2.0 mi East 12.7 mph - 0.00 in   Overcast
10:54 PM 30.2 °F 20.2 °F 28.4 °F 93% 30.02 in 1.0 mi East 12.7 mph - 0.00 in   Overcast
10:56 PM 30.0 °F 19.5 °F 28.9 °F 96% 30.04 in 0.8 mi East 13.8 mph - 0.00 in Snow Light Snow
10:58 PM 30.2 °F 19.8 °F 28.4 °F 93% 30.02 in 1.2 mi East 13.8 mph - 0.00 in Snow Light Snow
11:05 PM 30.2 °F 20.2 °F 28.4 °F 93% 30.02 in 3.0 mi East 12.7 mph - 0.00 in   Overcast
11:12 PM 30.2 °F 20.8 °F 28.4 °F 93% 30.02 in 1.5 mi East 11.5 mph - 0.00 in Snow Light Snow
11:14 PM 30.2 °F 20.8 °F 28.4 °F 93% 30.02 in 0.8 mi East 11.5 mph - 0.00 in Snow Light Snow
11:24 PM 30.2 °F 20.8 °F 28.4 °F 93% 30.02 in 2.0 mi ENE 11.5 mph - 0.00 in   Overcast
11:29 PM 30.2 °F 21.9 °F 28.4 °F 93% 30.02 in 1.0 mi ENE 9.2 mph - 0.00 in Snow Light Snow
11:36 PM 30.2 °F 21.3 °F 28.4 °F 93% 30.02 in 0.8 mi ENE 10.4 mph - 0.00 in Snow Light Snow
11:49 PM 30.2 °F 20.8 °F 28.4 °F 93% 30.02 in 1.2 mi ENE 11.5 mph - 0.00 in Snow Light Snow
11:52 PM 30.2 °F 21.3 °F 28.4 °F 93% 30.02 in 3.0 mi ENE 10.4 mph - 0.00 in   Overcast
11:56 PM 30.0 °F 20.5 °F 28.9 °F 96% 30.04 in 9.0 mi ENE 11.5 mph - 0.00 in   Overcast